Погода в Больших Плоты

Россия / Тульская область     53°18′14″N   38°11′14″E
темп.,
°C
ветер,
м/с
пор.,
м/с
влажн.,
%
обл.,
%
осадки,
мм/ч
давл.,
гПа
погр.,
м
7 марта, вс
вс700:00−12з449175 0.0 101878
03:00−13зюз499137 0.0 1017139
06:00−12юз6148914 0.0 1014283
09:00−8юз9178257 0.0 1010635
12:00−5юз111882100 0.0 1006961
15:00−3юз121991100 0.1 10011262
18:00−2зюз111988100 0.4 9991141
21:00−2сз81396100 2.5 999812
8 марта, пн
пн800:00−7зюз4109298 0.4 1000204
03:00−9зюз5128549 0.4 1001240
06:00−9зюз5139042 0.0 1000298
09:00−6зюз6139163 0.0 1001596
12:00−5з7118788 0.0 1002917
15:00−4зсз7107894 0.1 10031238
18:00−8сз4108735 0.0 1006234
21:00−11зсз499037 0.0 1009163
9 марта, вт
вт900:00−12зсз479658 0.0 1010128
03:00−14сз349661 0.0 101263
06:00−15ссз339688 0.0 101455
09:00−14ссз379494 0.0 1016232
12:00−12ссз358850 0.0 1017462
15:00−11сз458667 0.0 1018615
18:00−14сз339297 0.0 101923
21:00−15сз339587 0.1 102231
10 марта, ср
ср1000:00−18ссз349327 0.0 102254
03:00−20ссз339726 0.0 102421
06:00−22сз23960 0.0 102520
09:00−19сз23950 0.0 1026104
12:00−15с228667 0.0 1027312
15:00−13сз018183 0.0 1026416
18:00−14вюв1195100 0.1 102520
21:00−15вюв339699 0.3 102772
11 марта, чт
чт1100:00−17юв369786 0.1 1026122
03:00−16юв489692 0.3 1026219
06:00−14ююв5995100 0.3 1025319
09:00−11ю5994100 0.6 1025349
12:00−8ююз6992100 0.2 1023435
15:00−6ююз61089100 0.2 1022476
18:00−7ююз41191100 0.0 1021340
21:00−7ююз51289100 0.0 1020327